Weather History for Clarion, IA

Change the Weather History Date:

Sunday, January 20, 2013

  Actual Average Record
Temperature  
Mean Temperature 6 °F -  
Max Temperature 10 °F 26 °F 50 °F (1981)
Min Temperature 3 °F 6 °F -27 °F (1962)
Degree Days  
Heating Degree Days 58    
Moisture  
Dew Point 0 °F    
Average Humidity 70    
Maximum Humidity 79    
Minimum Humidity 61    
Precipitation  
Precipitation 0.00 in - - ()
Sea Level Pressure  
Sea Level Pressure 30.32 in    
Wind  
Wind Speed 16 mph (NW)    
Max Wind Speed 24 mph    
Max Gust Speed 30 mph    
Visibility 9 miles    
Events Rain , Snow    
Averages and records for this station are not official NWS values.
T = Trace of Precipitation, MM = Missing Value Source: NWS Daily Summary

Daily Weather History Graph

Daily Weather History Graph

Search for Another Location

Airport:

Trip Planner

Search our weather history database for the weather conditions in past years. The results will help you decide how hot, cold, wet, or windy it might be!

Date:

Astronomy

Jan. 20, 2013 Rise Set
Actual Time 7:39 AM CST 5:13 PM CST
Civil Twilight 7:08 AM CST 5:44 PM CST
Nautical Twilight 6:34 AM CST 6:18 PM CST
Astronomical Twilight 6:00 AM CST 6:52 PM CST
Moon 12:15 PM CST (1/20) 2:11 AM CST (1/20)
Length of Visible Light 10h 35m
Length of Day
9h 33m
Waxing Gibbous, 66% of the Moon is Illuminated
Jan 20
Waxing Gibbous
Jan 26
Full
Feb 3
Last Quarter
Feb 10
New
Feb 17
First Quarter

Hourly Weather History & Observations

Time (CST) Temp. Windchill Dew Point Humidity Pressure Visibility Wind Dir Wind Speed Gust Speed Precip Events Conditions
12:15 AM 8.6 °F -12.3 °F -0.4 °F 67% 30.26 in 10.0 mi NW 24.2 mph - N/A   Clear
12:35 AM 8.6 °F -11.9 °F -0.4 °F 67% 30.27 in 10.0 mi NW 23.0 mph 29.9 mph N/A   Clear
12:55 AM 8.6 °F -11.4 °F -0.4 °F 67% 30.27 in 10.0 mi NW 21.9 mph - N/A   Scattered Clouds
1:15 AM 8.6 °F -11.0 °F -2.2 °F 62% 30.28 in 10.0 mi NW 20.7 mph 28.8 mph N/A   Scattered Clouds
1:35 AM 8.6 °F -10.5 °F -2.2 °F 62% 30.28 in 10.0 mi NNW 19.6 mph 27.6 mph N/A   Partly Cloudy
1:55 AM 6.8 °F -11.3 °F -2.2 °F 67% 30.30 in 10.0 mi NW 16.1 mph - N/A   Partly Cloudy
2:15 AM 6.8 °F -12.9 °F -2.2 °F 67% 30.30 in 10.0 mi NW 19.6 mph - N/A   Partly Cloudy
2:35 AM 6.8 °F -11.8 °F -2.2 °F 67% 30.31 in 10.0 mi NW 17.3 mph 23.0 mph N/A   Clear
2:55 AM 6.8 °F -11.3 °F -2.2 °F 67% 30.31 in 10.0 mi NW 16.1 mph - N/A   Partly Cloudy
3:15 AM 6.8 °F -11.3 °F -2.2 °F 67% 30.31 in 10.0 mi NNW 16.1 mph 21.9 mph N/A   Clear
3:35 AM 6.8 °F -10.7 °F -2.2 °F 67% 30.32 in 10.0 mi NNW 15.0 mph - N/A   Clear
3:55 AM 6.8 °F -10.0 °F -2.2 °F 67% 30.31 in 10.0 mi NNW 13.8 mph - N/A   Clear
4:15 AM 6.8 °F -11.3 °F -2.2 °F 67% 30.32 in 10.0 mi NW 16.1 mph - N/A   Clear
4:35 AM 6.8 °F -10.0 °F -2.2 °F 67% 30.31 in 10.0 mi NNW 13.8 mph - N/A   Partly Cloudy
4:55 AM 6.8 °F -7.8 °F -2.2 °F 67% 30.32 in 10.0 mi NNW 10.4 mph - N/A   Mostly Cloudy
5:15 AM 5.0 °F -13.6 °F -2.2 °F 72% 30.32 in 10.0 mi NW 16.1 mph - N/A   Mostly Cloudy
5:35 AM 5.0 °F -11.6 °F -2.2 °F 72% 30.31 in 10.0 mi NNW 12.7 mph - N/A   Mostly Cloudy
5:55 AM 5.0 °F -10.0 °F -2.2 °F 72% 30.31 in 10.0 mi NNW 10.4 mph - N/A   Overcast
6:15 AM 5.0 °F -10.0 °F -4.0 °F 66% 30.30 in 10.0 mi NNW 10.4 mph - N/A   Overcast
6:35 AM 5.0 °F -10.0 °F -4.0 °F 66% 30.30 in 10.0 mi NNW 10.4 mph - N/A   Overcast
6:55 AM 5.0 °F -10.0 °F -2.2 °F 72% 30.31 in 10.0 mi NNW 10.4 mph - N/A   Overcast
7:15 AM 5.0 °F -10.0 °F -4.0 °F 66% 30.32 in 10.0 mi NNW 10.4 mph - N/A   Overcast
7:35 AM 5.0 °F -10.8 °F -4.0 °F 66% 30.33 in 10.0 mi NW 11.5 mph - N/A   Overcast
7:55 AM 6.8 °F -8.6 °F -2.2 °F 67% 30.34 in 10.0 mi NW 11.5 mph - N/A   Overcast
8:15 AM 6.8 °F -7.8 °F -4.0 °F 61% 30.35 in 10.0 mi NW 10.4 mph - N/A   Overcast
8:35 AM 5.0 °F -11.6 °F -4.0 °F 66% 30.36 in 10.0 mi NW 12.7 mph - N/A   Overcast
8:55 AM 6.8 °F -7.8 °F -4.0 °F 61% 30.36 in 10.0 mi NW 10.4 mph - N/A   Scattered Clouds
9:15 AM 6.8 °F -7.8 °F -4.0 °F 61% 30.37 in 10.0 mi NW 10.4 mph - N/A   Partly Cloudy
9:35 AM 6.8 °F -7.8 °F -2.2 °F 67% 30.38 in 5.0 mi NW 10.4 mph - N/A Snow Light Snow
9:55 AM 6.8 °F -7.8 °F -0.4 °F 72% 30.38 in 1.2 mi NW 10.4 mph - N/A Snow Light Snow
10:15 AM 6.8 °F -7.8 °F -0.4 °F 72% 30.38 in 1.0 mi NW 10.4 mph - N/A Snow Light Snow
10:35 AM 6.8 °F -5.9 °F 1.4 °F 79% 30.37 in 1.2 mi NW 8.1 mph - N/A Snow Light Snow
10:55 AM 8.6 °F -7.0 °F 1.4 °F 73% 30.38 in 2.0 mi NW 12.7 mph - N/A Snow Light Snow
11:15 AM 8.6 °F -7.0 °F 1.4 °F 73% 30.39 in 4.0 mi NW 12.7 mph - N/A Snow Light Snow
11:35 AM 8.6 °F -6.3 °F 1.4 °F 73% 30.39 in 1.5 mi NW 11.5 mph 18.4 mph N/A Snow Light Snow
11:55 AM 8.6 °F -7.7 °F 1.4 °F 73% 30.37 in 1.2 mi NW 13.8 mph - N/A Snow Light Snow
12:15 PM 8.6 °F -7.0 °F 1.4 °F 73% 30.37 in 2.0 mi NW 12.7 mph - N/A Snow Light Snow
12:35 PM 8.6 °F -7.0 °F 1.4 °F 73% 30.36 in 4.0 mi NW 12.7 mph 18.4 mph N/A Snow Light Snow
12:55 PM 10.4 °F -4.8 °F 3.2 °F 73% 30.36 in 7.0 mi NW 12.7 mph - N/A Rain Light Freezing Rain
1:15 PM 8.6 °F -8.3 °F 1.4 °F 73% 30.35 in 10.0 mi NW 15.0 mph - N/A   Overcast
1:35 PM 10.4 °F -4.8 °F 1.4 °F 67% 30.36 in 10.0 mi NW 12.7 mph - N/A Snow Light Snow
1:55 PM 10.4 °F -6.0 °F 3.2 °F 73% 30.35 in 10.0 mi NW 15.0 mph - N/A   Overcast
2:15 PM 10.4 °F -6.0 °F 1.4 °F 67% 30.35 in 10.0 mi NW 15.0 mph - N/A   Overcast
2:35 PM 10.4 °F -6.0 °F 1.4 °F 67% 30.34 in 10.0 mi NW 15.0 mph - N/A Snow Light Snow
2:55 PM 10.4 °F -5.4 °F 3.2 °F 73% 30.35 in 10.0 mi NW 13.8 mph - N/A   Overcast
3:15 PM 10.4 °F -4.8 °F 3.2 °F 73% 30.34 in 10.0 mi NW 12.7 mph - N/A   Overcast
3:35 PM 10.4 °F -5.4 °F 3.2 °F 73% 30.34 in 10.0 mi WNW 13.8 mph - N/A   Overcast
3:55 PM 10.4 °F -4.8 °F 3.2 °F 73% 30.33 in 10.0 mi NW 12.7 mph - N/A Snow Light Snow
4:15 PM 10.4 °F -4.8 °F 1.4 °F 67% 30.33 in 10.0 mi WNW 12.7 mph 19.6 mph N/A   Overcast
4:35 PM 10.4 °F -6.0 °F 3.2 °F 73% 30.33 in 10.0 mi WNW 15.0 mph - N/A   Overcast
4:55 PM 10.4 °F -4.8 °F 3.2 °F 73% 30.33 in 10.0 mi WNW 12.7 mph - N/A   Overcast
5:15 PM 10.4 °F -3.3 °F 1.4 °F 67% 30.32 in 10.0 mi WNW 10.4 mph - N/A   Overcast
5:35 PM 8.6 °F -1.3 °F 1.4 °F 73% 30.32 in 10.0 mi WNW 5.8 mph - N/A   Overcast
5:55 PM 6.8 °F -5.9 °F 1.4 °F 79% 30.31 in 10.0 mi West 8.1 mph - N/A   Scattered Clouds
6:15 PM 8.6 °F -6.3 °F 3.2 °F 79% 30.32 in 10.0 mi West 11.5 mph - N/A   Mostly Cloudy
6:55 PM 8.6 °F -6.3 °F 1.4 °F 73% 30.31 in 10.0 mi West 11.5 mph 17.3 mph N/A   Overcast
7:15 PM 6.8 °F -8.6 °F 1.4 °F 79% 30.31 in 10.0 mi WNW 11.5 mph - N/A   Overcast
7:35 PM 6.8 °F -10.7 °F 1.4 °F 79% 30.31 in 10.0 mi WNW 15.0 mph - N/A   Overcast
7:55 PM 6.8 °F -10.0 °F 1.4 °F 79% 30.30 in 10.0 mi WNW 13.8 mph - N/A   Mostly Cloudy
8:15 PM 6.8 °F -11.3 °F -0.4 °F 72% 30.31 in 10.0 mi WNW 16.1 mph - N/A   Scattered Clouds
8:35 PM 6.8 °F -11.3 °F -0.4 °F 72% 30.30 in 10.0 mi WNW 16.1 mph - N/A   Mostly Cloudy
8:55 PM 6.8 °F -10.7 °F -0.4 °F 72% 30.29 in 10.0 mi WNW 15.0 mph - N/A   Mostly Cloudy
9:15 PM 6.8 °F -10.7 °F 1.4 °F 79% 30.29 in 10.0 mi West 15.0 mph - N/A Snow Light Snow
9:35 PM 8.6 °F -8.9 °F 1.4 °F 73% 30.29 in 10.0 mi West 16.1 mph 21.9 mph N/A   Overcast
9:55 PM 6.8 °F -11.3 °F 1.4 °F 79% 30.29 in 10.0 mi West 16.1 mph - N/A   Overcast
10:15 PM 6.8 °F -10.0 °F 1.4 °F 79% 30.30 in 3.0 mi NW 13.8 mph 21.9 mph N/A Snow Light Snow
10:35 PM 5.0 °F -13.6 °F -2.2 °F 72% 30.30 in 10.0 mi NW 16.1 mph 23.0 mph N/A   Mostly Cloudy
10:55 PM 5.0 °F -10.8 °F -4.0 °F 66% 30.30 in 10.0 mi NW 11.5 mph 17.3 mph N/A   Overcast
11:15 PM 3.2 °F -11.3 °F -4.0 °F 72% 30.30 in 10.0 mi NW 9.2 mph - N/A   Scattered Clouds
11:35 PM 3.2 °F -13.1 °F -4.0 °F 72% 30.30 in 10.0 mi WNW 11.5 mph - N/A   Mostly Cloudy
11:55 PM 3.2 °F -14.6 °F -4.0 °F 72% 30.30 in - WNW 13.8 mph - N/A   Scattered Clouds